Regional Weather Roundup
Issued by NWS

Home | Current Version | Previous Version | Graphics & Text | Print | Product List | Glossary On
Versions: 1 2 3 4 5 6 7 8 9 10 11 12 13 14 15 16 17 18 19 20 21 22 23 24 25 26 27 28 29 30 31 32 33 34 35 36 37 38 39 40 41 42 43 44 45 46 47 48 49 50
000
ASUS45 KBOU 131810
RWRCO

WEATHER ROUNDUP FOR COLORADO
NATIONAL WEATHER SERVICE DENVER/BOULDER CO
1100 AM MST WED DEC 13 2017

NOTE: "FAIR" INDICATES FEW OR NO CLOUDS BELOW 12000 FEET WITH NO
SIGNIFICANT WEATHER AND/OR OBSTRUCTIONS TO VISIBILITY.

COZ001>005-013-030-031-131900-
...NORTHWEST COLORADO...

CITY           SKY/WX    TMP DP  RH WIND       PRES   REMARKS
CRAIG          CLOUDY    27  19  72 CALM      30.23F
HAYDEN         CLOUDY    29  21  72 CALM      30.23F
MEEKER         CLOUDY    33  17  51 CALM      30.23F
RABBIT EARS PA CLOUDY    28   1  31 W8G17     30.24F WCI  20
STEAMBOAT SPGS CLOUDY    28  19  70 CALM      30.22F
WALDEN         CLOUDY    34  14  44 CALM      30.21F
$$

COZ006>008-011-131900-
...WEST CENTRAL VALLEYS...

CITY           SKY/WX    TMP DP  RH WIND       PRES   REMARKS
GRAND JUNCTION CLOUDY    38  13  35 S3        30.23F
MONTROSE       FAIR      41  12  30 NE3       30.26F
EAGLE          CLOUDY    23  14  68 CALM      30.29F
RIFLE          CLOUDY    30  15  53 CALM      30.25F
DELTA          CLOUDY    38  10  31 E3        30.24F
NUCLA          FAIR      36   7  30 CALM      30.28F
$$

COZ017>023-064>068-131900-
...SOUTHWEST COLORADO...

CITY           SKY/WX    TMP DP  RH WIND       PRES   REMARKS
DURANGO        FAIR      38   8  29 CALM      30.20F
CORTEZ         FAIR      42   8  24 SW3       30.21F
PAGOSA SPRINGS FAIR      46   3  17 CALM      30.21F
TELLURIDE      FAIR      45   1  16 CALM      30.28F
WOLF CREEK PAS PTSUNNY   32  -8  18 N5        30.37F WCI  27
$$

COZ009-010-012-014-032>034-037-058>063-131900-
...CENTRAL COLORADO...

CITY           SKY/WX    TMP DP  RH WIND       PRES   REMARKS
ASPEN          CLOUDY    38  10  31 NW5       30.22F
BUENA VISTA    FAIR      44   1  16 NW13      30.18F
COPPER MTN     NOT AVBL
BERTHOUD PASS  CLOUDY    19   9  63 NW22      30.25F WCI   3
COTTONWOOD PAS FAIR      45 -17   7 W12G23    30.23F
GUNNISON       FAIR      22   9  57 CALM      30.30F
KREMMLING      CLOUDY    23  18  80 CALM      30.27F
LEADVILLE      CLOUDY    35  -3  19 N5        30.24F WCI  31
MONARCH PASS   CLOUDY    30  -2  24 W13       30.41F WCI  20
SALIDA         FAIR      43   5  21 CALM      30.26F
SUNLIGHT       CLOUDY    32   1  27 W7        30.33F WCI  26
WILKERSON PASS CLOUDY    32 -17  11 NW6       30.28F WCI  26
$$

COZ069>075-131900-
...SAN LUIS VALLEY/SANGRE DE CRISTO MOUNTAINS...

CITY           SKY/WX    TMP DP  RH WIND       PRES   REMARKS
ALAMOSA        FAIR      37   7  28 CALM      30.22F
DEL NORTE      FAIR      42   4  20 CALM      30.22F
LA VETA PASS   FAIR      39   7  26 MISG        N/A
SAGUACHE       FAIR      37   9  30 SE8       30.22F
$$

COZ035-036-038>040-131900-
...NORTHERN COLORADO FRONT RANGE...

CITY           SKY/WX    TMP DP  RH WIND       PRES   REMARKS
DENVER INTL AP FAIR      46   8  21 VRB5      30.15F
DMNS CITY PARK NOT AVBL
AURORA         MOSUNNY   46   8  21 E7        30.16F
FRONT RANGE AP PTSUNNY   48  10  21 NE5       30.16F
ERIE MUNI ARPT FAIR      51   4  14 S9        30.19
BOULDER MUN AP FAIR      52   9  17 SE9       30.13F
CENTENNIAL     PTSUNNY   44  10  25 S7        30.15F
BROOMFIELD     MOSUNNY   48   7  18 SE12      30.15F
FORT COLLINS   FAIR      49  13  23 S15       30.13F
LONGMONT       FAIR      54   8  15 SE10      30.15F
$$

COZ041-046-047-076>085-087-088-131900-
...PIKES PEAK/PALMER DIVIDE AND SOUTHERN FOOTHILLS...

CITY           SKY/WX    TMP DP  RH WIND       PRES   REMARKS
COLO. SPRINGS  PTSUNNY   48   7  18 SW7       30.18F
A. F. ACADEMY  CLOUDY    44   4  19 N8        30.16F
SCHRIEVER AFB  FAIR      47   5  18 N9        30.17R
CHEYENNE MTN   FAIR      43   3  19 NE5       30.12F
ELLICOTT         N/A      1  32 100 NW7       30.16  WCI -12
FALCON         CLOUDY    44   4  19 N15       30.17F
FORT CARSON    FAIR      49   5  16 SW10G17   30.15F
LIMON          FAIR      47  11  23 N25G33    30.12F
MONUMENT HILL  PTSUNNY   37   9  30 NE6       30.18F
CANON CITY     FAIR      50   9  18 NE3       30.17F
WALSENBURG     FAIR      50   7  17 SE6       30.19F
TRINIDAD       FAIR      49   8  19 VRB3      30.20F
$$

COZ042>045-048>051-090-091-131900-
...NORTHEAST COLORADO...

CITY           SKY/WX    TMP DP  RH WIND       PRES   REMARKS
GREELEY ARPT   FAIR      51  11  20 NW7       30.14F
AKRON          FAIR      48  12  23 MISG      30.12F
BURLINGTON     FAIR      52  15  23 N24G38    30.08F
WRAY           FAIR      54  12  19 N24G33    30.09F
YUMA           FAIR      46  14  27 NW23G32   30.11F
STERLING       FAIR      50  16  25 N26       30.10F
HOLYOKE        FAIR      54  14  20 NW24G36   30.07F
FORT MORGAN    FAIR      51  10  19 N23G30    30.13F
$$

COZ086-089-092>099-131900-
...SOUTHEAST COLORADO...

CITY           SKY/WX    TMP DP  RH WIND       PRES   REMARKS
PUEBLO         FAIR      52   8  17 CALM      30.16F
LA JUNTA       FAIR      53  13  20 N12G20    30.16F
LAMAR          FAIR      56  14  19 N15G21    30.11F
SPRINGFIELD      N/A     55  13  18 N23G31    30.11F
$$



USA.gov is the U.S. government's official web portal to all federal, state and local government web resources and services.